Hourly Weather Kisva

Today, 20 October, Tuesday

Time Temperature Precipitation Wind Pressure Humidity
00:00 +2°C° 0 mm 5 mps 747 mmHg 78%
01:00 +1°C° 0 mm 5 mps 747 mmHg 78%
02:00 +1°C° 0 mm 5 mps 747 mmHg 79%
03:00 +1°C° 0 mm 6 mps 747 mmHg 79%
04:00 +1°C° 0 mm 6 mps 747 mmHg 80%
05:00 +1°C° 0 mm 6 mps 747 mmHg 81%
06:00 -1°C° 0 mm 6 mps 747 mmHg 82%
07:00 +1°C° 0 mm 6 mps 747 mmHg 80%
08:00 0°C° 0 mm 7 mps 747 mmHg 78%
09:00 +2°C° 0 mm 7 mps 747 mmHg 76%
10:00 +2°C° 0 mm 7 mps 747 mmHg 73%
11:00 +2°C° 0 mm 7 mps 747 mmHg 70%
12:00 +3°C° 0 mm 7 mps 747 mmHg 67%
13:00 +3°C° 0.1 mm 7 mps 747 mmHg 67%
14:00 +3°C° 0.1 mm 7 mps 748 mmHg 66%
15:00 +2°C° 0.1 mm 8 mps 748 mmHg 66%
16:00 +3°C° 0 mm 7 mps 748 mmHg 70%
17:00 +2°C° 0 mm 7 mps 748 mmHg 73%
18:00 +2°C° 0 mm 6 mps 748 mmHg 77%
19:00 +1°C° 0.1 mm 6 mps 748 mmHg 79%
20:00 +1°C° 0.1 mm 5 mps 749 mmHg 80%
21:00 0°C° 0.1 mm 5 mps 749 mmHg 82%
22:00 0°C° 0 mm 5 mps 750 mmHg 82%
23:00 -1°C° 0 mm 5 mps 750 mmHg 82%

Tomorrow, 21 October, Wednesday

Time Temperature Precipitation Wind Pressure Humidity
00:00 -1°C° 0 mm 5 mps 750 mmHg 82%
01:00 -1°C° 0 mm 5 mps 751 mmHg 84%
02:00 -2°C° 0 mm 5 mps 751 mmHg 85%
03:00 -2°C° 0 mm 4 mps 752 mmHg 86%
04:00 -2°C° 0 mm 4 mps 752 mmHg 87%
05:00 -2°C° 0 mm 4 mps 752 mmHg 89%
06:00 -3°C° 0 mm 4 mps 753 mmHg 90%
07:00 -2°C° 0 mm 4 mps 753 mmHg 87%
08:00 -2°C° 0 mm 5 mps 753 mmHg 83%
09:00 -1°C° 0 mm 5 mps 753 mmHg 79%
10:00 0°C° 0 mm 5 mps 753 mmHg 74%
11:00 +1°C° 0 mm 5 mps 753 mmHg 69%
12:00 +2°C° 0 mm 5 mps 753 mmHg 64%
13:00 +2°C° 0 mm 5 mps 753 mmHg 63%
14:00 +3°C° 0 mm 4 mps 753 mmHg 62%
15:00 +3°C° 0 mm 4 mps 753 mmHg 62%
16:00 +3°C° 0 mm 4 mps 753 mmHg 71%
17:00 +1°C° 0 mm 4 mps 752 mmHg 81%
18:00 +1°C° 0 mm 4 mps 752 mmHg 90%
19:00 +2°C° 0.1 mm 3 mps 752 mmHg 92%
20:00 +2°C° 0.1 mm 3 mps 752 mmHg 93%
21:00 +2°C° 0.1 mm 3 mps 752 mmHg 95%
22:00 +3°C° 0.1 mm 2 mps 752 mmHg 94%
23:00 +3°C° 0.1 mm 2 mps 752 mmHg 93%

Day after tomorrow, 22 October, Thursday

Time Temperature Precipitation Wind Pressure Humidity
00:00 +4°C° 0.1 mm 1 mps 752 mmHg 92%
01:00 +4°C° 0 mm 1 mps 752 mmHg 92%
02:00 +3°C° 0 mm 2 mps 751 mmHg 91%
03:00 +3°C° 0 mm 2 mps 751 mmHg 91%
04:00 +3°C° 0 mm 2 mps 751 mmHg 91%
05:00 +3°C° 0 mm 2 mps 751 mmHg 91%
06:00 +4°C° 0 mm 2 mps 751 mmHg 91%
07:00 +4°C° 0 mm 2 mps 751 mmHg 90%
08:00 +4°C° 0 mm 2 mps 751 mmHg 89%
09:00 +3°C° 0 mm 3 mps 751 mmHg 88%
10:00 +4°C° 0 mm 3 mps 751 mmHg 86%
11:00 +5°C° 0 mm 3 mps 751 mmHg 83%
12:00 +5°C° 0 mm 3 mps 751 mmHg 81%
13:00 +5°C° 0.1 mm 3 mps 750 mmHg 83%
14:00 +5°C° 0.1 mm 3 mps 750 mmHg 84%
15:00 +5°C° 0.1 mm 3 mps 750 mmHg 86%
16:00 +5°C° 0.3 mm 4 mps 749 mmHg 88%
17:00 +5°C° 0.3 mm 4 mps 749 mmHg 90%
18:00 +5°C° 0.3 mm 4 mps 748 mmHg 93%
19:00 +5°C° 0.4 mm 4 mps 748 mmHg 93%
20:00 +5°C° 0.4 mm 4 mps 748 mmHg 94%
21:00 +5°C° 0.4 mm 4 mps 747 mmHg 94%
22:00 +5°C° 0.4 mm 4 mps 747 mmHg 95%
23:00 +7°C° 0.4 mm 3 mps 747 mmHg 95%

23 October, Friday

Time Temperature Precipitation Wind Pressure Humidity
00:00 +7°C° 0.4 mm 3 mps 747 mmHg 95%
01:00 +7°C° 0.1 mm 3 mps 747 mmHg 95%
02:00 +7°C° 0.1 mm 3 mps 746 mmHg 94%
03:00 +7°C° 0.1 mm 3 mps 746 mmHg 94%
04:00 +7°C° 0 mm 3 mps 746 mmHg 94%
05:00 +7°C° 0 mm 3 mps 747 mmHg 95%
06:00 +6°C° 0 mm 4 mps 747 mmHg 95%
07:00 +7°C° 0 mm 4 mps 747 mmHg 95%
08:00 +7°C° 0 mm 4 mps 747 mmHg 94%
09:00 +7°C° 0 mm 4 mps 747 mmHg 94%
10:00 +9°C° 0 mm 5 mps 747 mmHg 88%
11:00 +10°C° 0 mm 5 mps 747 mmHg 83%
12:00 +12°C° 0 mm 5 mps 747 mmHg 78%
13:00 +13°C° 0 mm 5 mps 747 mmHg 77%
14:00 +13°C° 0 mm 5 mps 747 mmHg 75%
15:00 +13°C° 0 mm 5 mps 746 mmHg 74%
16:00 +13°C° 0 mm 5 mps 746 mmHg 77%
17:00 +11°C° 0 mm 6 mps 746 mmHg 80%
18:00 +11°C° 0 mm 6 mps 745 mmHg 83%
19:00 +11°C° 0 mm 6 mps 745 mmHg 82%
20:00 +11°C° 0 mm 7 mps 745 mmHg 82%
21:00 +11°C° 0 mm 7 mps 745 mmHg 81%
22:00 +11°C° 0.1 mm 7 mps 744 mmHg 82%
23:00 +11°C° 0.1 mm 7 mps 744 mmHg 83%

24 October, Saturday

Time Temperature Precipitation Wind Pressure Humidity
00:00 +11°C° 0.1 mm 7 mps 743 mmHg 83%
01:00 +11°C° 0 mm 6 mps 743 mmHg 83%
02:00 +11°C° 0 mm 6 mps 743 mmHg 82%
03:00 +11°C° 0 mm 6 mps 742 mmHg 82%
04:00 +10°C° 0 mm 5 mps 742 mmHg 84%
05:00 +10°C° 0 mm 5 mps 742 mmHg 86%
06:00 +10°C° 0 mm 4 mps 742 mmHg 88%
07:00 +10°C° 0 mm 4 mps 742 mmHg 88%
08:00 +11°C° 0 mm 4 mps 742 mmHg 88%
09:00 +11°C° 0 mm 4 mps 742 mmHg 88%
10:00 +11°C° 0 mm 4 mps 743 mmHg 84%
11:00 +12°C° 0 mm 4 mps 743 mmHg 80%
12:00 +13°C° 0 mm 5 mps 744 mmHg 75%
13:00 +13°C° 0 mm 5 mps 744 mmHg 74%
14:00 +13°C° 0 mm 5 mps 744 mmHg 72%
15:00 +13°C° 0 mm 4 mps 744 mmHg 71%
16:00 +12°C° 0 mm 4 mps 744 mmHg 73%
17:00 +11°C° 0 mm 3 mps 744 mmHg 75%
18:00 +10°C° 0 mm 3 mps 745 mmHg 77%
19:00 +9°C° 0 mm 2 mps 745 mmHg 77%
20:00 +9°C° 0 mm 2 mps 745 mmHg 78%
21:00 +8°C° 0 mm 2 mps 746 mmHg 78%
22:00 +8°C° 0 mm 2 mps 746 mmHg 80%
23:00 +9°C° 0 mm 1 mps 746 mmHg 81%

25 October, Sunday

Time Temperature Precipitation Wind Pressure Humidity
00:00 +9°C° 0 mm 1 mps 747 mmHg 82%
01:00 +8°C° 0 mm 1 mps 747 mmHg 83%
02:00 +8°C° 0 mm 1 mps 747 mmHg 85%
03:00 +7°C° 0 mm 1 mps 747 mmHg 86%
04:00 +7°C° 0 mm 1 mps 747 mmHg 86%
05:00 +7°C° 0 mm 1 mps 747 mmHg 86%
06:00 +6°C° 0 mm 1 mps 747 mmHg 86%
07:00 +7°C° 0 mm 1 mps 747 mmHg 84%
08:00 +7°C° 0 mm 1 mps 747 mmHg 82%
09:00 +7°C° 0 mm 2 mps 748 mmHg 80%
10:00 +7°C° 0 mm 2 mps 748 mmHg 77%
11:00 +8°C° 0 mm 2 mps 748 mmHg 75%
12:00 +8°C° 0 mm 2 mps 748 mmHg 73%
13:00 +8°C° 0.3 mm 2 mps 748 mmHg 77%
14:00 +8°C° 0.3 mm 2 mps 748 mmHg 81%
15:00 +7°C° 0.3 mm 2 mps 748 mmHg 84%
16:00 +7°C° 0.5 mm 2 mps 748 mmHg 87%
17:00 +8°C° 0.5 mm 1 mps 748 mmHg 89%
18:00 +8°C° 0.5 mm 1 mps 748 mmHg 91%
19:00 +7°C° 0.1 mm 2 mps 748 mmHg 91%
20:00 +7°C° 0.1 mm 2 mps 749 mmHg 91%
21:00 +7°C° 0.1 mm 2 mps 749 mmHg 91%
22:00 +7°C° 0 mm 2 mps 749 mmHg 91%
23:00 +7°C° 0 mm 2 mps 749 mmHg 90%
Show more